WetterOnline ( https://www.wetteronline.de )

Wetter aktuell Carpin

Aktuelles Wetter: Feldberg (115m)

6-stündlich | Neueste Meldungen
Ortszeit Temperatur Wetter
Di, 20.08. 2:00 10.1° C leicht bewölkt
Mo, 19.08. 20:00 19.5° C leicht bewölkt
Mo, 19.08. 14:00 20.0° C wolkig
Mo, 19.08. 8:00 14.8° C bewölkt
Mo, 19.08. 2:00 15.0° C fast wolkenlos
So, 18.08. 20:00 19.1° C wolkig
So, 18.08. 14:00 20.3° C bedeckt
So, 18.08. 8:00 18.1° C bewölkt
Ortszeit Temperatur Wetter
Di, 20.08. 6:00 9.9° C leicht bewölkt
Di, 20.08. 5:50 9.9° C leicht bewölkt
Di, 20.08. 5:40 9.2° C leicht bewölkt
Di, 20.08. 5:30 9.5° C leicht bewölkt
Di, 20.08. 5:20 9.5° C leicht bewölkt
Di, 20.08. 5:10 9.2° C fast wolkenlos
Di, 20.08. 5:00 9.2° C leicht bewölkt
Di, 20.08. 4:30 9.6° C wolkenlos
Di, 20.08. 4:00 10.1° C fast wolkenlos
Di, 20.08. 3:30 10.0° C leicht bewölkt
Di, 20.08. 3:00 9.6° C fast wolkenlos
Ortszeit Relative Feuchte Sichtweite
Di, 20.08. 2:00 92% 25 km
Mo, 19.08. 20:00 55% 35 km
Mo, 19.08. 14:00 59% 30 km
Mo, 19.08. 8:00 98% 6 km
Mo, 19.08. 2:00 96% 18 km
So, 18.08. 20:00 97% 12 km
So, 18.08. 14:00 80% 28 km
So, 18.08. 8:00 79% 29 km
Ortszeit Relative Feuchte Sichtweite
Di, 20.08. 6:00 93% 22 km
Di, 20.08. 5:50 93% -
Di, 20.08. 5:40 94% -
Di, 20.08. 5:30 95% 23 km
Di, 20.08. 5:20 95% -
Di, 20.08. 5:10 95% -
Di, 20.08. 5:00 93% 19 km
Di, 20.08. 4:30 92% 22 km
Di, 20.08. 4:00 92% 24 km
Di, 20.08. 3:30 92% 19 km
Di, 20.08. 3:00 93% 22 km
Ortszeit Niederschlagsmenge Niederschlagsart
Di, 20.08. 2:00 0.0 l/m2 in 6 Std. -
Mo, 19.08. 20:00 0.0 l/m2 in 12 Std. -
Mo, 19.08. 14:00 0.0 l/m2 in 6 Std. -
Mo, 19.08. 8:00 0.1 l/m2 in 12 Std. -
Mo, 19.08. 2:00 0.1 l/m2 in 6 Std. Sprühregen
So, 18.08. 20:00 5 l/m2 in 12 Std. Regen
So, 18.08. 14:00 0.2 l/m2 in 6 Std. Regen
So, 18.08. 8:00 0.1 l/m2 in 12 Std. Regen
Ortszeit Niederschlagsmenge Niederschlagsart
Di, 20.08. 6:00 0.0 l/m2 in 1 Std. -
Di, 20.08. 5:50 keine Meldung -
Di, 20.08. 5:40 keine Meldung -
Di, 20.08. 5:30 0.0 l/m2 in 1 Std. -
Di, 20.08. 5:20 keine Meldung -
Di, 20.08. 5:10 keine Meldung -
Di, 20.08. 5:00 0.0 l/m2 in 1 Std. -
Di, 20.08. 4:30 0.0 l/m2 in 1 Std. -
Di, 20.08. 4:00 0.0 l/m2 in 1 Std. -
Di, 20.08. 3:30 0.0 l/m2 in 1 Std. -
Di, 20.08. 3:00 0.0 l/m2 in 1 Std. -
Ortszeit Stärke Spitze Richtung
km/h Bft. km/h Grad Sektor
Di, 20.08. 2:00 4 1 14 300° NW
Mo, 19.08. 20:00 9 2 43 230° SW
Mo, 19.08. 14:00 15 3 31 260° W
Mo, 19.08. 8:00 13 3 19 240° SW
Mo, 19.08. 2:00 7 2 32 290° W
So, 18.08. 20:00 7 2 32 230° SW
So, 18.08. 14:00 14 3 25 170° S
So, 18.08. 8:00 7 2 14 190° S
Ortszeit Stärke Spitze Richtung
km/h Bft. km/h Grad Sektor
Di, 20.08. 6:00 4 1 7 250° W
Di, 20.08. 5:50 4 1 - 250° W
Di, 20.08. 5:40 7 2 - 250° W
Di, 20.08. 5:30 4 1 7 270° W
Di, 20.08. 5:20 4 1 - 270° W
Di, 20.08. 5:10 2 1 - 180° S
Di, 20.08. 5:00 2 1 6 140° SO
Di, 20.08. 4:30 4 1 4 300° NW
Di, 20.08. 4:00 0 0 4 - -
Di, 20.08. 3:30 0 0 4 - -
Di, 20.08. 3:00 0 0 4 - -
Ortszeit Untergrenze Bedeckung Gattung
total tief tief mittel hoch
Di, 20.08. 2:00 8400 m 3/8 0/8 - - -
Mo, 19.08. 20:00 8400 m 3/8 0/8 - - -
Mo, 19.08. 14:00 1320 m 5/8 5/8 - - -
Mo, 19.08. 8:00 90 m 7/8 7/8 - - -
Mo, 19.08. 2:00 300 m 1/8 1/8 - - -
So, 18.08. 20:00 150 m 7/8 1/8 - - -
So, 18.08. 14:00 510 m 8/8 8/8 - - -
So, 18.08. 8:00 2700 m 7/8 7/8 - - -
Ortszeit Bedeckungsgrad in Achtel und Wolkenuntergrenze
Di, 20.08. 6:00 5(8400m)
Di, 20.08. 5:50 5(8400m)
Di, 20.08. 5:40 5(8100m)
Di, 20.08. 5:30 5(8400m)
Di, 20.08. 5:20 5(8400m)
Di, 20.08. 5:10 2(8400m)
Di, 20.08. 5:00 3(8400m)
Di, 20.08. 4:30 2(8400m)
Di, 20.08. 4:00 2(8100m)
Di, 20.08. 3:30 4(8400m)
Di, 20.08. 3:00 1(8100m)
Ortszeit Luftdruck NN (hPa) Tendenz (hPa in 3 Std.)
Di, 20.08. 2:00 1020 + 0,9
Mo, 19.08. 20:00 1017 + 1,0
Mo, 19.08. 14:00 1015 + 0,9
Mo, 19.08. 8:00 1013 + 1,2
Mo, 19.08. 2:00 1010 + 2,2
So, 18.08. 20:00 1005 - 0,2
So, 18.08. 14:00 1006 - 0,2
So, 18.08. 8:00 1007 - 0,3
Ortszeit Luftdruck NN (hPa) Tendenz (hPa in 3 Std.)
Di, 20.08. 6:00 1020 + 0,6
Di, 20.08. 5:50 1020 keine Meldung
Di, 20.08. 5:40 1021 keine Meldung
Di, 20.08. 5:30 1020 + 0,4
Di, 20.08. 5:20 1020 keine Meldung
Di, 20.08. 5:10 1020 keine Meldung
Di, 20.08. 5:00 1020 + 0,5
Di, 20.08. 4:30 1020 + 0,7
Di, 20.08. 4:00 1020 + 0,9
Di, 20.08. 3:30 1020 + 1,0
Di, 20.08. 3:00 1020 + 0,9
Ortszeit Schneehöhe (cm)
Di, 20.08. 2:00 -
Mo, 19.08. 20:00 -
Mo, 19.08. 14:00 -
Mo, 19.08. 8:00 -
Mo, 19.08. 2:00 -
So, 18.08. 20:00 -
So, 18.08. 14:00 -
So, 18.08. 8:00 -
Ortszeit Schneehöhe (cm)
Di, 20.08. 6:00 -
Di, 20.08. 5:50 -
Di, 20.08. 5:40 -
Di, 20.08. 5:30 -
Di, 20.08. 5:20 -
Di, 20.08. 5:10 -
Di, 20.08. 5:00 -
Di, 20.08. 4:30 -
Di, 20.08. 4:00 -
Di, 20.08. 3:30 -
Di, 20.08. 3:00 -
Link zu dieser Seite / Seite empfehlen

Das Wetter in ...